Time,TemperatureF,DewpointF,PressureIn,WindDirection,WindDirectionDegrees,WindSpeedMPH,WindSpeedGustMPH,Humidity,HourlyPrecipIn,Conditions,Clouds,dailyrainin,SoftwareType,DateUTC
2013-08-03 00:01:00,63.8,59.2,29.86,South,184,0.0,0.0,85,0.00,,,0.00,WUHU216DAVISVP2,2013-08-03 04:01:00,
2013-08-03 00:06:00,63.5,59.6,29.86,South,184,0.0,0.0,87,0.00,,,0.00,WUHU216DAVISVP2,2013-08-03 04:06:00,
2013-08-03 00:11:00,63.1,59.5,29.86,SE,141,1.0,1.0,88,0.00,,,0.00,WUHU216DAVISVP2,2013-08-03 04:11:00,
2013-08-03 00:16:00,62.9,59.6,29.87,West,265,1.0,2.0,89,0.00,,,0.00,WUHU216DAVISVP2,2013-08-03 04:16:00,
2013-08-03 00:21:00,62.4,59.4,29.86,SW,233,1.0,2.0,90,0.00,,,0.00,WUHU216DAVISVP2,2013-08-03 04:21:00,
2013-08-03 00:27:00,62.2,59.5,29.86,SW,229,1.0,3.0,91,0.00,,,0.00,WUHU216DAVISVP2,2013-08-03 04:27:00,
2013-08-03 00:32:00,62.0,59.6,29.87,SSW,209,0.0,3.0,92,0.00,,,0.00,WUHU216DAVISVP2,2013-08-03 04:32:00,
2013-08-03 00:36:00,62.0,59.9,29.86,ESE,113,1.1,3.0,93,0.00,,,0.00,WUHU216DAVISVP2,2013-08-03 04:36:00,
2013-08-03 00:42:00,62.2,60.1,29.86,South,171,1.0,2.0,93,0.00,,,0.00,WUHU216DAVISVP2,2013-08-03 04:42:00,
2013-08-03 00:46:00,62.0,59.9,29.86,SW,226,1.0,2.0,93,0.00,,,0.00,WUHU216DAVISVP2,2013-08-03 04:46:00,
2013-08-03 00:52:00,61.8,59.7,29.86,SSW,200,1.0,2.0,93,0.00,,,0.00,WUHU216DAVISVP2,2013-08-03 04:52:00,
2013-08-03 00:57:00,61.7,59.9,29.86,SSE,157,0.0,1.0,94,0.00,,,0.00,WUHU216DAVISVP2,2013-08-03 04:57:00,
2013-08-03 01:02:00,61.9,60.1,29.86,East,98,1.0,3.0,94,0.00,,,0.00,WUHU216DAVISVP2,2013-08-03 05:02:00,
2013-08-03 01:07:00,61.8,60.0,29.86,East,101,1.0,3.0,94,0.00,,,0.00,WUHU216DAVISVP2,2013-08-03 05:07:00,
2013-08-03 01:12:00,61.7,59.9,29.86,West,263,1.0,3.0,94,0.00,,,0.00,WUHU216DAVISVP2,2013-08-03 05:12:00,
2013-08-03 01:17:00,61.5,59.7,29.86,WSW,238,0.0,1.0,94,0.00,,,0.00,WUHU216DAVISVP2,2013-08-03 05:17:00,
2013-08-03 01:22:00,61.5,60.0,29.86,SSW,200,1.2,2.0,95,0.00,,,0.00,WUHU216DAVISVP2,2013-08-03 05:22:00,
2013-08-03 01:27:00,61.4,59.9,29.86,SSW,197,0.0,2.0,95,0.00,,,0.00,WUHU216DAVISVP2,2013-08-03 05:27:00,
2013-08-03 01:32:00,61.4,59.9,29.86,SSW,195,0.0,2.0,95,0.00,,,0.00,WUHU216DAVISVP2,2013-08-03 05:32:00,
2013-08-03 01:37:00,61.3,59.8,29.86,SSW,198,0.0,2.0,95,0.00,,,0.00,WUHU216DAVISVP2,2013-08-03 05:37:00,
2013-08-03 01:42:00,61.3,59.8,29.85,SSW,198,0.0,2.0,95,0.00,,,0.00,WUHU216DAVISVP2,2013-08-03 05:42:00,
2013-08-03 01:47:00,61.2,59.7,29.85,SE,143,1.0,2.0,95,0.00,,,0.00,WUHU216DAVISVP2,2013-08-03 05:47:00,
2013-08-03 01:52:00,61.2,59.7,29.85,SSW,207,1.0,3.0,95,0.00,,,0.00,WUHU216DAVISVP2,2013-08-03 05:52:00,
2013-08-03 01:57:00,61.3,60.1,29.85,ESE,121,1.0,3.0,96,0.00,,,0.00,WUHU216DAVISVP2,2013-08-03 05:57:00,
2013-08-03 02:02:00,61.4,60.2,29.84,South,181,1.1,2.0,96,0.00,,,0.00,WUHU216DAVISVP2,2013-08-03 06:02:00,
2013-08-03 02:07:00,61.5,60.3,29.84,SE,128,1.0,2.0,96,0.00,,,0.00,WUHU216DAVISVP2,2013-08-03 06:07:00,
2013-08-03 02:12:00,61.6,60.1,29.84,South,184,1.0,2.0,95,0.00,,,0.00,WUHU216DAVISVP2,2013-08-03 06:12:00,
2013-08-03 02:17:00,61.6,60.1,29.83,SSW,207,1.0,2.0,95,0.00,,,0.00,WUHU216DAVISVP2,2013-08-03 06:17:00,
2013-08-03 02:22:00,61.6,60.1,29.83,SSW,205,1.0,2.0,95,0.00,,,0.00,WUHU216DAVISVP2,2013-08-03 06:22:00,
2013-08-03 02:27:00,61.8,60.3,29.83,SSW,210,1.3,3.0,95,0.00,,,0.00,WUHU216DAVISVP2,2013-08-03 06:27:00,
2013-08-03 02:32:00,62.1,60.6,29.83,SSE,151,1.5,3.0,95,0.00,,,0.00,WUHU216DAVISVP2,2013-08-03 06:32:00,
2013-08-03 02:37:00,62.5,61.0,29.83,SE,135,1.8,3.0,95,0.00,,,0.00,WUHU216DAVISVP2,2013-08-03 06:37:00,
2013-08-03 02:42:00,62.7,60.9,29.83,South,186,1.0,3.0,94,0.00,,,0.00,WUHU216DAVISVP2,2013-08-03 06:42:00,
2013-08-03 02:47:00,62.9,61.4,29.83,SE,127,1.0,3.0,95,0.00,,,0.00,WUHU216DAVISVP2,2013-08-03 06:47:00,
2013-08-03 02:52:00,62.9,61.4,29.82,SE,128,2.0,3.0,95,0.00,,,0.00,WUHU216DAVISVP2,2013-08-03 06:52:00,
2013-08-03 02:57:00,63.0,61.5,29.82,SE,127,1.0,2.0,95,0.00,,,0.00,WUHU216DAVISVP2,2013-08-03 06:57:00,
2013-08-03 03:02:00,63.0,61.5,29.82,South,169,1.0,2.0,95,0.00,,,0.00,WUHU216DAVISVP2,2013-08-03 07:02:00,
2013-08-03 03:07:00,63.0,61.5,29.82,SE,129,1.0,2.0,95,0.00,,,0.00,WUHU216DAVISVP2,2013-08-03 07:07:00,
2013-08-03 03:12:00,63.0,61.5,29.82,ESE,114,1.4,2.0,95,0.00,,,0.00,WUHU216DAVISVP2,2013-08-03 07:12:00,
2013-08-03 03:17:00,63.0,61.5,29.81,ESE,119,1.7,4.0,95,0.00,,,0.00,WUHU216DAVISVP2,2013-08-03 07:17:00,
2013-08-03 03:22:00,63.1,61.6,29.81,SSE,151,1.0,4.0,95,0.00,,,0.00,WUHU216DAVISVP2,2013-08-03 07:22:00,
2013-08-03 03:27:00,63.0,61.5,29.81,South,188,1.0,4.0,95,0.00,,,0.00,WUHU216DAVISVP2,2013-08-03 07:27:00,
2013-08-03 03:32:00,62.9,61.4,29.81,SSW,192,1.2,4.0,95,0.00,,,0.00,WUHU216DAVISVP2,2013-08-03 07:32:00,
2013-08-03 03:37:00,62.8,61.3,29.81,South,186,1.1,2.0,95,0.00,,,0.00,WUHU216DAVISVP2,2013-08-03 07:37:00,
2013-08-03 03:42:00,62.8,61.6,29.81,South,171,1.5,4.0,96,0.00,,,0.00,WUHU216DAVISVP2,2013-08-03 07:42:00,
2013-08-03 03:47:00,62.8,61.6,29.81,SW,217,1.1,4.0,96,0.00,,,0.00,WUHU216DAVISVP2,2013-08-03 07:47:00,
2013-08-03 03:52:00,62.8,61.6,29.80,SSW,197,2.4,4.0,96,0.00,,,0.00,WUHU216DAVISVP2,2013-08-03 07:52:00,
2013-08-03 03:57:00,62.8,61.6,29.80,SSE,148,1.3,4.0,96,0.00,,,0.00,WUHU216DAVISVP2,2013-08-03 07:57:00,
2013-08-03 04:02:00,62.8,61.6,29.81,SSW,210,4.0,4.0,96,0.00,,,0.00,WUHU216DAVISVP2,2013-08-03 08:02:00,
2013-08-03 04:07:00,62.8,61.6,29.81,South,187,4.0,5.0,96,0.00,,,0.00,WUHU216DAVISVP2,2013-08-03 08:07:00,
2013-08-03 04:12:00,62.8,61.6,29.81,South,175,1.2,5.0,96,0.00,,,0.00,WUHU216DAVISVP2,2013-08-03 08:12:00,
2013-08-03 04:17:00,62.8,61.6,29.81,SSW,192,1.0,5.0,96,0.00,,,0.00,WUHU216DAVISVP2,2013-08-03 08:17:00,
2013-08-03 04:22:00,62.8,61.6,29.81,SSW,204,1.4,4.0,96,0.00,,,0.00,WUHU216DAVISVP2,2013-08-03 08:22:00,
2013-08-03 04:27:00,62.7,61.5,29.81,SSW,209,1.4,4.0,96,0.00,,,0.00,WUHU216DAVISVP2,2013-08-03 08:27:00,
2013-08-03 04:32:00,62.7,61.5,29.81,SSW,201,2.1,4.0,96,0.00,,,0.00,WUHU216DAVISVP2,2013-08-03 08:32:00,
2013-08-03 04:37:00,62.7,61.5,29.82,WSW,249,1.1,5.0,96,0.00,,,0.00,WUHU216DAVISVP2,2013-08-03 08:37:00,
2013-08-03 04:42:00,62.7,61.5,29.81,SSE,155,2.0,5.0,96,0.00,,,0.00,WUHU216DAVISVP2,2013-08-03 08:42:00,
2013-08-03 04:47:00,62.6,61.4,29.81,SSW,207,2.0,5.0,96,0.00,,,0.00,WUHU216DAVISVP2,2013-08-03 08:47:00,
2013-08-03 04:52:00,62.6,61.4,29.81,South,184,2.1,5.0,96,0.00,,,0.00,WUHU216DAVISVP2,2013-08-03 08:52:00,
2013-08-03 04:57:00,62.6,61.4,29.81,SW,217,1.4,6.0,96,0.00,,,0.00,WUHU216DAVISVP2,2013-08-03 08:57:00,
2013-08-03 05:02:00,62.6,61.1,29.82,SSW,211,3.0,6.0,95,0.00,,,0.00,WUHU216DAVISVP2,2013-08-03 09:02:00,
2013-08-03 05:07:00,62.5,61.0,29.82,South,186,2.0,6.0,95,0.00,,,0.00,WUHU216DAVISVP2,2013-08-03 09:07:00,
2013-08-03 05:12:00,62.4,60.9,29.82,SW,219,1.8,6.0,95,0.00,,,0.00,WUHU216DAVISVP2,2013-08-03 09:12:00,
2013-08-03 05:17:00,62.4,60.9,29.82,SSE,153,2.0,5.0,95,0.00,,,0.00,WUHU216DAVISVP2,2013-08-03 09:17:00,
2013-08-03 05:22:00,62.4,60.9,29.82,SSW,204,1.5,5.0,95,0.00,,,0.00,WUHU216DAVISVP2,2013-08-03 09:22:00,
2013-08-03 05:27:00,62.4,60.9,29.82,South,186,1.3,5.0,95,0.00,,,0.00,WUHU216DAVISVP2,2013-08-03 09:27:00,
2013-08-03 05:32:00,62.4,60.6,29.82,SSW,194,1.2,4.0,94,0.00,,,0.00,WUHU216DAVISVP2,2013-08-03 09:32:00,
2013-08-03 05:37:00,62.4,60.6,29.83,SW,231,1.3,4.0,94,0.00,,,0.00,WUHU216DAVISVP2,2013-08-03 09:37:00,
2013-08-03 05:42:00,62.3,60.5,29.83,SW,217,1.2,3.0,94,0.00,,,0.00,WUHU216DAVISVP2,2013-08-03 09:42:00,
2013-08-03 05:47:00,62.2,60.7,29.83,SSW,210,2.2,5.0,95,0.00,,,0.00,WUHU216DAVISVP2,2013-08-03 09:47:00,
2013-08-03 05:52:00,62.2,60.8,29.84,WSW,247,1.6,5.0,95,0.00,,,0.00,WUHU216DAVISVP2,2013-08-03 09:52:00,
2013-08-03 05:57:00,62.2,60.8,29.83,SSE,166,3.0,4.0,95,0.00,,,0.00,WUHU216DAVISVP2,2013-08-03 09:57:00,
2013-08-03 06:02:00,62.3,60.8,29.83,SSE,154,1.0,4.0,95,0.00,,,0.00,WUHU216DAVISVP2,2013-08-03 10:02:00,
2013-08-03 06:07:00,62.3,60.8,29.83,SSW,207,0.0,4.0,95,0.00,,,0.00,WUHU216DAVISVP2,2013-08-03 10:07:00,
2013-08-03 06:12:00,62.3,60.8,29.83,SSE,150,0.0,4.0,95,0.00,,,0.00,WUHU216DAVISVP2,2013-08-03 10:12:00,
2013-08-03 06:17:00,62.2,60.8,29.84,SSW,197,0.0,4.0,95,0.00,,,0.00,WUHU216DAVISVP2,2013-08-03 10:17:00,
2013-08-03 06:22:00,62.2,60.7,29.84,SSW,201,1.0,3.0,95,0.00,,,0.00,WUHU216DAVISVP2,2013-08-03 10:22:00,
2013-08-03 06:27:00,62.2,60.7,29.84,WSW,245,1.1,3.0,95,0.00,,,0.00,WUHU216DAVISVP2,2013-08-03 10:27:00,
2013-08-03 06:32:00,62.3,60.8,29.84,South,181,1.6,3.0,95,0.00,,,0.00,WUHU216DAVISVP2,2013-08-03 10:32:00,
2013-08-03 06:37:00,62.4,60.9,29.84,SSW,203,1.9,4.0,95,0.00,,,0.00,WUHU216DAVISVP2,2013-08-03 10:37:00,
2013-08-03 06:42:00,62.7,61.2,29.84,SW,231,1.0,5.0,95,0.00,,,0.00,WUHU216DAVISVP2,2013-08-03 10:42:00,
2013-08-03 06:47:00,62.9,61.1,29.84,WSW,244,1.4,5.0,94,0.00,,,0.00,WUHU216DAVISVP2,2013-08-03 10:47:00,
2013-08-03 06:52:00,63.5,61.4,29.84,West,270,1.5,5.0,93,0.00,,,0.00,WUHU216DAVISVP2,2013-08-03 10:52:00,
2013-08-03 06:57:00,63.8,61.4,29.84,WNW,282,0.0,5.0,92,0.00,,,0.00,WUHU216DAVISVP2,2013-08-03 10:57:00,
2013-08-03 07:02:00,64.1,61.1,29.84,South,178,1.0,4.0,90,0.00,,,0.00,WUHU216DAVISVP2,2013-08-03 11:02:00,
2013-08-03 07:07:00,64.9,60.9,29.84,West,269,2.0,3.0,87,0.00,,,0.00,WUHU216DAVISVP2,2013-08-03 11:07:00,
2013-08-03 07:12:00,66.0,61.4,29.84,NW,305,1.4,5.0,85,0.00,,,0.00,WUHU216DAVISVP2,2013-08-03 11:12:00,
2013-08-03 07:17:00,66.7,61.1,29.84,West,266,3.5,10.0,82,0.00,,,0.00,WUHU216DAVISVP2,2013-08-03 11:17:00,
2013-08-03 07:22:00,67.4,61.4,29.85,West,278,2.6,10.0,81,0.00,,,0.00,WUHU216DAVISVP2,2013-08-03 11:22:00,
2013-08-03 07:27:00,67.7,61.4,29.85,SW,231,2.0,10.0,80,0.00,,,0.00,WUHU216DAVISVP2,2013-08-03 11:27:00,
2013-08-03 07:32:00,67.9,61.6,29.85,WNW,289,1.7,10.0,80,0.00,,,0.00,WUHU216DAVISVP2,2013-08-03 11:32:00,
2013-08-03 07:37:00,68.0,61.3,29.85,West,281,1.0,5.0,79,0.00,,,0.00,WUHU216DAVISVP2,2013-08-03 11:37:00,
2013-08-03 07:42:00,68.3,61.6,29.85,SSE,160,2.0,7.0,79,0.00,,,0.00,WUHU216DAVISVP2,2013-08-03 11:42:00,
2013-08-03 07:48:00,68.4,61.3,29.85,NW,313,4.0,7.0,78,0.00,,,0.00,WUHU216DAVISVP2,2013-08-03 11:48:00,
2013-08-03 07:53:00,68.7,61.2,29.85,NNW,330,2.0,7.0,77,0.00,,,0.00,WUHU216DAVISVP2,2013-08-03 11:53:00,
2013-08-03 07:57:00,68.8,61.3,29.85,WNW,294,1.4,7.0,77,0.00,,,0.00,WUHU216DAVISVP2,2013-08-03 11:57:00,
2013-08-03 08:03:00,69.0,61.6,29.86,WNW,290,1.0,7.0,77,0.00,,,0.00,WUHU216DAVISVP2,2013-08-03 12:03:00,
2013-08-03 08:07:00,69.1,61.3,29.86,WNW,294,1.4,5.0,76,0.00,,,0.00,WUHU216DAVISVP2,2013-08-03 12:07:00,
2013-08-03 08:13:00,69.3,61.9,29.86,West,270,1.0,4.0,77,0.00,,,0.00,WUHU216DAVISVP2,2013-08-03 12:13:00,
2013-08-03 08:18:00,69.5,61.7,29.86,NW,307,1.0,4.0,76,0.00,,,0.00,WUHU216DAVISVP2,2013-08-03 12:18:00,
2013-08-03 08:23:00,69.5,61.7,29.86,WSW,258,1.6,3.0,76,0.00,,,0.00,WUHU216DAVISVP2,2013-08-03 12:23:00,
2013-08-03 08:27:00,69.6,61.5,29.86,West,260,1.2,3.0,75,0.00,,,0.00,WUHU216DAVISVP2,2013-08-03 12:27:00,
2013-08-03 08:33:00,69.7,61.6,29.86,North,8,1.0,2.0,75,0.00,,,0.00,WUHU216DAVISVP2,2013-08-03 12:33:00,
2013-08-03 08:38:00,70.2,64.2,29.86,North,358,0.0,2.0,81,0.00,,,0.00,WUHU216DAVISVP2,2013-08-03 12:38:00,
2013-08-03 08:43:00,70.0,61.5,29.86,NNE,22,4.2,7.0,74,0.00,,,0.00,WUHU216DAVISVP2,2013-08-03 12:43:00,
2013-08-03 08:48:00,70.1,62.3,29.86,NNW,331,2.0,7.0,76,0.00,,,0.00,WUHU216DAVISVP2,2013-08-03 12:48:00,
2013-08-03 08:53:00,70.2,61.3,29.86,NE,34,5.0,7.0,73,0.00,,,0.00,WUHU216DAVISVP2,2013-08-03 12:53:00,
2013-08-03 08:57:00,70.2,61.3,29.86,NW,321,2.2,7.0,73,0.00,,,0.00,WUHU216DAVISVP2,2013-08-03 12:57:00,
2013-08-03 09:03:00,70.3,61.8,29.86,NNW,327,1.2,7.0,74,0.00,,,0.00,WUHU216DAVISVP2,2013-08-03 13:03:00,
2013-08-03 09:08:00,70.5,63.4,29.86,WSW,249,1.0,7.0,78,0.00,,,0.00,WUHU216DAVISVP2,2013-08-03 13:08:00,
2013-08-03 09:13:00,70.7,62.2,29.86,WNW,303,3.0,7.0,74,0.00,,,0.00,WUHU216DAVISVP2,2013-08-03 13:13:00,
2013-08-03 09:18:00,70.9,62.0,29.86,NNW,335,5.0,6.0,73,0.00,,,0.00,WUHU216DAVISVP2,2013-08-03 13:18:00,
2013-08-03 09:23:00,71.0,62.1,29.86,NW,309,5.0,11.0,73,0.00,,,0.00,WUHU216DAVISVP2,2013-08-03 13:23:00,
2013-08-03 09:28:00,71.3,62.4,29.86,WNW,300,6.0,11.0,73,0.00,,,0.00,WUHU216DAVISVP2,2013-08-03 13:28:00,
2013-08-03 09:33:00,71.4,62.1,29.86,West,277,2.2,11.0,72,0.00,,,0.00,WUHU216DAVISVP2,2013-08-03 13:33:00,
2013-08-03 09:38:00,71.7,62.0,29.86,NW,321,8.0,12.0,71,0.00,,,0.00,WUHU216DAVISVP2,2013-08-03 13:38:00,
2013-08-03 09:43:00,72.0,61.9,29.86,NW,325,4.1,12.0,70,0.00,,,0.00,WUHU216DAVISVP2,2013-08-03 13:43:00,
2013-08-03 09:48:00,72.6,61.4,29.85,WNW,293,3.0,12.0,68,0.00,,,0.00,WUHU216DAVISVP2,2013-08-03 13:48:00,
2013-08-03 09:53:00,72.5,61.7,29.85,WNW,299,3.6,12.0,69,0.00,,,0.00,WUHU216DAVISVP2,2013-08-03 13:53:00,
2013-08-03 09:58:00,72.9,61.7,29.85,WSW,250,6.0,10.0,68,0.00,,,0.00,WUHU216DAVISVP2,2013-08-03 13:58:00,
2013-08-03 10:03:00,72.9,60.9,29.85,West,271,6.7,10.0,66,0.00,,,0.00,WUHU216DAVISVP2,2013-08-03 14:03:00,
2013-08-03 10:08:00,73.0,60.7,29.85,NNW,328,4.3,11.0,65,0.00,,,0.00,WUHU216DAVISVP2,2013-08-03 14:08:00,
2013-08-03 10:13:00,73.3,62.3,29.85,NNW,329,5.0,11.0,68,0.00,,,0.00,WUHU216DAVISVP2,2013-08-03 14:13:00,
2013-08-03 10:18:00,73.8,61.9,29.85,NW,308,3.0,11.0,66,0.00,,,0.00,WUHU216DAVISVP2,2013-08-03 14:18:00,
2013-08-03 10:23:00,73.5,61.2,29.85,North,357,6.0,11.0,65,0.00,,,0.00,WUHU216DAVISVP2,2013-08-03 14:23:00,
2013-08-03 10:28:00,73.1,61.3,29.85,NW,309,5.1,11.0,66,0.00,,,0.00,WUHU216DAVISVP2,2013-08-03 14:28:00,
2013-08-03 10:33:00,73.2,62.2,29.85,NW,323,3.2,13.0,68,0.00,,,0.00,WUHU216DAVISVP2,2013-08-03 14:33:00,
2013-08-03 10:38:00,73.3,61.0,29.85,NNW,342,4.9,13.0,65,0.00,,,0.00,WUHU216DAVISVP2,2013-08-03 14:38:00,
2013-08-03 10:43:00,73.2,61.4,29.85,NNE,15,3.0,13.0,66,0.00,,,0.00,WUHU216DAVISVP2,2013-08-03 14:43:00,
2013-08-03 10:48:00,73.4,60.7,29.85,NW,322,5.7,13.0,64,0.00,,,0.00,WUHU216DAVISVP2,2013-08-03 14:48:00,
2013-08-03 10:53:00,73.6,60.4,29.85,WNW,289,6.2,12.0,63,0.00,,,0.00,WUHU216DAVISVP2,2013-08-03 14:53:00,
2013-08-03 10:58:00,73.7,60.5,29.85,West,262,4.8,13.0,63,0.00,,,0.00,WUHU216DAVISVP2,2013-08-03 14:58:00,
2013-08-03 11:03:00,73.9,61.6,29.85,NNW,345,3.3,14.0,65,0.00,,,0.00,WUHU216DAVISVP2,2013-08-03 15:03:00,
2013-08-03 11:08:00,74.4,60.7,29.84,NNW,341,5.2,14.0,62,0.00,,,0.00,WUHU216DAVISVP2,2013-08-03 15:08:00,
2013-08-03 11:13:00,74.9,61.9,29.84,WSW,250,3.0,14.0,64,0.00,,,0.00,WUHU216DAVISVP2,2013-08-03 15:13:00,
2013-08-03 11:18:00,74.8,60.0,29.85,WNW,289,5.5,14.0,60,0.00,,,0.00,WUHU216DAVISVP2,2013-08-03 15:18:00,
2013-08-03 11:23:00,74.9,61.5,29.84,WSW,252,4.2,11.0,63,0.00,,,0.00,WUHU216DAVISVP2,2013-08-03 15:23:00,
2013-08-03 11:28:00,74.8,60.7,29.84,NW,312,5.5,11.0,61,0.00,,,0.00,WUHU216DAVISVP2,2013-08-03 15:28:00,
2013-08-03 11:33:00,74.9,60.8,29.84,NNW,345,4.0,11.0,61,0.00,,,0.00,WUHU216DAVISVP2,2013-08-03 15:33:00,
2013-08-03 11:38:00,75.2,61.0,29.84,NNE,24,3.0,10.0,61,0.00,,,0.00,WUHU216DAVISVP2,2013-08-03 15:38:00,
2013-08-03 11:43:00,75.7,60.6,29.84,WNW,291,3.0,10.0,59,0.00,,,0.00,WUHU216DAVISVP2,2013-08-03 15:43:00,
2013-08-03 11:48:00,75.9,61.2,29.84,NNW,333,5.0,10.0,60,0.00,,,0.00,WUHU216DAVISVP2,2013-08-03 15:48:00,
2013-08-03 11:53:00,76.7,61.5,29.84,ESE,104,3.0,10.0,59,0.00,,,0.00,WUHU216DAVISVP2,2013-08-03 15:53:00,
2013-08-03 11:58:00,77.2,61.0,29.84,WNW,302,3.5,11.0,57,0.00,,,0.00,WUHU216DAVISVP2,2013-08-03 15:58:00,
2013-08-03 12:03:00,76.5,60.8,29.84,NW,311,2.4,11.0,58,0.00,,,0.00,WUHU216DAVISVP2,2013-08-03 16:03:00,
2013-08-03 12:08:00,76.5,61.3,29.84,WNW,296,6.7,11.0,59,0.00,,,0.00,WUHU216DAVISVP2,2013-08-03 16:08:00,
2013-08-03 12:13:00,76.9,60.7,29.84,NW,316,6.0,11.0,57,0.00,,,0.00,WUHU216DAVISVP2,2013-08-03 16:13:00,
2013-08-03 12:18:00,77.4,62.2,29.84,NNW,329,5.0,11.0,59,0.00,,,0.00,WUHU216DAVISVP2,2013-08-03 16:18:00,
2013-08-03 12:23:00,77.5,63.0,29.83,WNW,289,4.2,11.0,61,0.00,,,0.00,WUHU216DAVISVP2,2013-08-03 16:23:00,
2013-08-03 12:28:00,77.7,60.8,29.83,WSW,253,1.7,9.0,56,0.00,,,0.00,WUHU216DAVISVP2,2013-08-03 16:28:00,
2013-08-03 12:33:00,78.0,59.6,29.83,WSW,253,5.0,10.0,53,0.00,,,0.00,WUHU216DAVISVP2,2013-08-03 16:33:00,
2013-08-03 12:38:00,77.7,59.9,29.83,NW,326,6.0,10.0,54,0.00,,,0.00,WUHU216DAVISVP2,2013-08-03 16:38:00,
2013-08-03 12:43:00,78.1,60.3,29.83,NW,324,2.7,11.0,54,0.00,,,0.00,WUHU216DAVISVP2,2013-08-03 16:43:00,
2013-08-03 12:48:00,78.4,60.5,29.83,WNW,290,2.7,11.0,54,0.00,,,0.00,WUHU216DAVISVP2,2013-08-03 16:48:00,
2013-08-03 12:53:00,78.3,59.9,29.82,NW,314,9.0,11.0,53,0.00,,,0.00,WUHU216DAVISVP2,2013-08-03 16:53:00,
2013-08-03 12:58:00,78.5,60.1,29.82,WNW,297,7.0,11.0,53,0.00,,,0.00,WUHU216DAVISVP2,2013-08-03 16:58:00,
2013-08-03 13:03:00,78.4,61.1,29.82,North,351,3.4,11.0,55,0.00,,,0.00,WUHU216DAVISVP2,2013-08-03 17:03:00,
2013-08-03 13:08:00,77.4,61.2,29.82,NNW,335,7.0,10.0,57,0.00,,,0.00,WUHU216DAVISVP2,2013-08-03 17:08:00,
2013-08-03 13:13:00,77.4,61.9,29.82,North,349,2.8,10.0,59,0.00,,,0.00,WUHU216DAVISVP2,2013-08-03 17:13:00,
2013-08-03 13:18:00,77.0,61.1,29.82,North,11,4.0,8.0,58,0.00,,,0.00,WUHU216DAVISVP2,2013-08-03 17:18:00,
2013-08-03 13:23:00,77.1,60.9,29.82,NNE,28,5.7,11.0,57,0.00,,,0.00,WUHU216DAVISVP2,2013-08-03 17:23:00,
2013-08-03 13:28:00,77.6,60.8,29.82,NNW,346,6.7,11.0,56,0.00,,,0.00,WUHU216DAVISVP2,2013-08-03 17:28:00,
2013-08-03 13:33:00,78.0,62.2,29.82,NW,321,2.1,11.0,58,0.00,,,0.00,WUHU216DAVISVP2,2013-08-03 17:33:00,
2013-08-03 13:38:00,78.2,63.4,29.82,NW,307,2.8,11.0,60,0.00,,,0.00,WUHU216DAVISVP2,2013-08-03 17:38:00,
2013-08-03 13:43:00,78.1,63.3,29.82,NE,39,4.0,11.0,60,0.00,,,0.00,WUHU216DAVISVP2,2013-08-03 17:43:00,
2013-08-03 13:48:00,78.5,62.2,29.82,West,262,3.0,7.0,57,0.00,,,0.00,WUHU216DAVISVP2,2013-08-03 17:48:00,
2013-08-03 13:53:00,79.2,62.3,29.82,North,7,3.8,8.0,56,0.00,,,0.00,WUHU216DAVISVP2,2013-08-03 17:53:00,
2013-08-03 13:58:00,79.3,61.7,29.82,NNE,14,5.7,8.0,55,0.00,,,0.00,WUHU216DAVISVP2,2013-08-03 17:58:00,
2013-08-03 14:03:00,78.0,59.5,29.82,NW,320,10.0,16.0,53,0.00,,,0.00,WUHU216DAVISVP2,2013-08-03 18:03:00,
2013-08-03 14:08:00,76.8,59.6,29.82,NW,308,5.8,16.0,55,0.00,,,0.00,WUHU216DAVISVP2,2013-08-03 18:08:00,
2013-08-03 14:13:00,77.0,59.8,29.82,North,354,4.4,14.0,55,0.00,,,0.00,WUHU216DAVISVP2,2013-08-03 18:13:00,
2013-08-03 14:18:00,77.6,59.8,29.81,North,7,3.0,14.0,54,0.00,,,0.00,WUHU216DAVISVP2,2013-08-03 18:18:00,
2013-08-03 14:23:00,78.7,62.9,29.81,WSW,255,5.0,12.0,58,0.00,,,0.00,WUHU216DAVISVP2,2013-08-03 18:23:00,
2013-08-03 14:28:00,79.1,59.5,29.81,WNW,289,9.0,10.0,51,0.00,,,0.00,WUHU216DAVISVP2,2013-08-03 18:28:00,
2013-08-03 14:33:00,78.8,59.8,29.81,WNW,290,5.0,10.0,52,0.00,,,0.00,WUHU216DAVISVP2,2013-08-03 18:33:00,
2013-08-03 14:38:00,78.5,58.9,29.81,WNW,298,4.0,12.0,51,0.00,,,0.00,WUHU216DAVISVP2,2013-08-03 18:38:00,
2013-08-03 14:43:00,78.3,57.6,29.81,WNW,286,5.3,12.0,49,0.00,,,0.00,WUHU216DAVISVP2,2013-08-03 18:43:00,
2013-08-03 14:48:00,78.1,56.9,29.81,NW,312,5.2,12.0,48,0.00,,,0.00,WUHU216DAVISVP2,2013-08-03 18:48:00,
2013-08-03 14:53:00,77.7,57.7,29.81,NNW,346,6.0,14.0,50,0.00,,,0.00,WUHU216DAVISVP2,2013-08-03 18:53:00,
2013-08-03 14:58:00,77.6,57.0,29.81,WNW,288,6.0,14.0,49,0.00,,,0.00,WUHU216DAVISVP2,2013-08-03 18:58:00,
2013-08-03 15:03:00,78.0,58.0,29.81,NW,304,9.0,14.0,50,0.00,,,0.00,WUHU216DAVISVP2,2013-08-03 19:03:00,
2013-08-03 15:08:00,78.7,58.6,29.81,West,269,4.3,14.0,50,0.00,,,0.00,WUHU216DAVISVP2,2013-08-03 19:08:00,
2013-08-03 15:13:00,79.0,58.2,29.81,NNW,344,8.0,14.0,49,0.00,,,0.00,WUHU216DAVISVP2,2013-08-03 19:13:00,
2013-08-03 15:18:00,78.9,59.9,29.81,North,350,4.0,14.0,52,0.00,,,0.00,WUHU216DAVISVP2,2013-08-03 19:18:00,
2013-08-03 15:23:00,78.5,58.4,29.81,North,356,3.9,14.0,50,0.00,,,0.00,WUHU216DAVISVP2,2013-08-03 19:23:00,
2013-08-03 15:28:00,78.7,58.6,29.81,WNW,298,10.0,13.0,50,0.00,,,0.00,WUHU216DAVISVP2,2013-08-03 19:28:00,
2013-08-03 15:33:00,78.9,58.2,29.81,NNW,335,4.0,13.0,49,0.00,,,0.00,WUHU216DAVISVP2,2013-08-03 19:33:00,
2013-08-03 15:38:00,79.3,59.0,29.81,NW,317,4.5,11.0,50,0.00,,,0.00,WUHU216DAVISVP2,2013-08-03 19:38:00,
2013-08-03 15:43:00,79.3,58.0,29.80,WNW,283,5.5,14.0,48,0.00,,,0.00,WUHU216DAVISVP2,2013-08-03 19:43:00,
2013-08-03 15:48:00,79.3,56.8,29.81,NW,319,10.0,16.0,46,0.00,,,0.00,WUHU216DAVISVP2,2013-08-03 19:48:00,
2013-08-03 15:53:00,79.6,57.0,29.81,WSW,255,10.0,16.0,46,0.00,,,0.00,WUHU216DAVISVP2,2013-08-03 19:53:00,
2013-08-03 15:58:00,79.7,58.3,29.81,NW,304,5.3,16.0,48,0.00,,,0.00,WUHU216DAVISVP2,2013-08-03 19:58:00,
2013-08-03 16:03:00,79.8,56.6,29.81,NW,309,6.0,16.0,45,0.00,,,0.00,WUHU216DAVISVP2,2013-08-03 20:03:00,
2013-08-03 16:08:00,79.7,56.5,29.81,NNW,330,4.2,14.0,45,0.00,,,0.00,WUHU216DAVISVP2,2013-08-03 20:08:00,
2013-08-03 16:13:00,79.6,55.1,29.81,NNW,343,7.7,14.0,43,0.00,,,0.00,WUHU216DAVISVP2,2013-08-03 20:13:00,
2013-08-03 16:18:00,79.6,54.4,29.80,WNW,296,5.1,14.0,42,0.00,,,0.00,WUHU216DAVISVP2,2013-08-03 20:18:00,
2013-08-03 16:23:00,79.9,54.0,29.80,NW,322,5.5,16.0,41,0.00,,,0.00,WUHU216DAVISVP2,2013-08-03 20:23:00,
2013-08-03 16:28:00,80.1,57.5,29.80,NW,304,7.0,16.0,46,0.00,,,0.00,WUHU216DAVISVP2,2013-08-03 20:28:00,
2013-08-03 16:33:00,79.9,54.7,29.81,NNW,344,6.2,16.0,42,0.00,,,0.00,WUHU216DAVISVP2,2013-08-03 20:33:00,
2013-08-03 16:38:00,79.9,55.4,29.80,NW,316,4.8,16.0,43,0.00,,,0.00,WUHU216DAVISVP2,2013-08-03 20:38:00,
2013-08-03 16:43:00,80.2,55.7,29.80,North,350,5.4,14.0,43,0.00,,,0.00,WUHU216DAVISVP2,2013-08-03 20:43:00,
2013-08-03 16:48:00,79.9,56.0,29.80,North,354,6.6,14.0,44,0.00,,,0.00,WUHU216DAVISVP2,2013-08-03 20:48:00,
2013-08-03 16:53:00,79.5,56.3,29.81,WNW,299,7.9,18.0,45,0.00,,,0.00,WUHU216DAVISVP2,2013-08-03 20:53:00,
2013-08-03 16:58:00,79.2,55.4,29.81,WNW,286,8.0,18.0,44,0.00,,,0.00,WUHU216DAVISVP2,2013-08-03 20:58:00,
2013-08-03 17:03:00,79.4,56.8,29.81,NW,311,7.0,18.0,46,0.00,,,0.00,WUHU216DAVISVP2,2013-08-03 21:03:00,
2013-08-03 17:08:00,79.4,55.0,29.81,West,281,9.0,18.0,43,0.00,,,0.00,WUHU216DAVISVP2,2013-08-03 21:08:00,
2013-08-03 17:13:00,79.4,55.6,29.81,NNW,342,9.0,18.0,44,0.00,,,0.00,WUHU216DAVISVP2,2013-08-03 21:13:00,
2013-08-03 17:18:00,79.4,55.6,29.81,NW,313,6.2,14.0,44,0.00,,,0.00,WUHU216DAVISVP2,2013-08-03 21:18:00,
2013-08-03 17:23:00,79.2,55.4,29.81,NW,324,8.9,17.0,44,0.00,,,0.00,WUHU216DAVISVP2,2013-08-03 21:23:00,
2013-08-03 17:28:00,79.0,55.9,29.81,WNW,289,7.0,17.0,45,0.00,,,0.00,WUHU216DAVISVP2,2013-08-03 21:28:00,
2013-08-03 17:33:00,79.1,55.9,29.81,NW,318,5.6,17.0,45,0.00,,,0.00,WUHU216DAVISVP2,2013-08-03 21:33:00,
2013-08-03 17:38:00,79.0,55.2,29.81,NW,325,6.7,17.0,44,0.00,,,0.00,WUHU216DAVISVP2,2013-08-03 21:38:00,
2013-08-03 17:43:00,79.0,56.5,29.81,WNW,285,7.0,16.0,46,0.00,,,0.00,WUHU216DAVISVP2,2013-08-03 21:43:00,
2013-08-03 17:48:00,78.9,56.4,29.81,NNW,333,7.0,15.0,46,0.00,,,0.00,WUHU216DAVISVP2,2013-08-03 21:48:00,
2013-08-03 17:53:00,78.8,56.9,29.82,WNW,297,4.5,15.0,47,0.00,,,0.00,WUHU216DAVISVP2,2013-08-03 21:53:00,
2013-08-03 17:58:00,78.8,58.1,29.81,NW,304,4.0,13.0,49,0.00,,,0.00,WUHU216DAVISVP2,2013-08-03 21:58:00,
2013-08-03 18:03:00,78.7,57.4,29.82,WNW,303,2.4,13.0,48,0.00,,,0.00,WUHU216DAVISVP2,2013-08-03 22:03:00,
2013-08-03 18:08:00,78.6,57.9,29.82,NNW,345,8.0,12.0,49,0.00,,,0.00,WUHU216DAVISVP2,2013-08-03 22:08:00,
2013-08-03 18:13:00,78.4,56.6,29.82,NW,315,5.4,13.0,47,0.00,,,0.00,WUHU216DAVISVP2,2013-08-03 22:13:00,
2013-08-03 18:18:00,78.1,56.9,29.82,NNW,332,3.4,13.0,48,0.00,,,0.00,WUHU216DAVISVP2,2013-08-03 22:18:00,
2013-08-03 18:23:00,78.3,57.1,29.82,NNE,30,4.0,13.0,48,0.00,,,0.00,WUHU216DAVISVP2,2013-08-03 22:23:00,
2013-08-03 18:28:00,77.9,57.3,29.82,WNW,282,11.0,15.0,49,0.00,,,0.00,WUHU216DAVISVP2,2013-08-03 22:28:00,
2013-08-03 18:33:00,77.8,56.6,29.82,NNE,12,11.0,15.0,48,0.00,,,0.00,WUHU216DAVISVP2,2013-08-03 22:33:00,
2013-08-03 18:38:00,77.8,57.2,29.82,NNW,345,2.0,14.0,49,0.00,,,0.00,WUHU216DAVISVP2,2013-08-03 22:38:00,
2013-08-03 18:43:00,77.6,56.4,29.82,NW,312,7.0,12.0,48,0.00,,,0.00,WUHU216DAVISVP2,2013-08-03 22:43:00,
2013-08-03 18:48:00,77.6,57.0,29.83,NW,322,8.0,12.0,49,0.00,,,0.00,WUHU216DAVISVP2,2013-08-03 22:48:00,
2013-08-03 18:53:00,77.2,56.6,29.82,NW,308,7.0,12.0,49,0.00,,,0.00,WUHU216DAVISVP2,2013-08-03 22:53:00,
2013-08-03 18:58:00,77.0,55.9,29.83,NNW,346,6.4,13.0,48,0.00,,,0.00,WUHU216DAVISVP2,2013-08-03 22:58:00,
2013-08-03 19:03:00,76.8,56.3,29.82,NW,312,5.9,15.0,49,0.00,,,0.00,WUHU216DAVISVP2,2013-08-03 23:03:00,
2013-08-03 19:08:00,76.6,56.1,29.83,NNW,330,5.3,15.0,49,0.00,,,0.00,WUHU216DAVISVP2,2013-08-03 23:08:00,
2013-08-03 19:13:00,76.4,56.5,29.83,North,7,3.0,15.0,50,0.00,,,0.00,WUHU216DAVISVP2,2013-08-03 23:13:00,
2013-08-03 19:18:00,76.3,56.4,29.83,NW,304,4.4,15.0,50,0.00,,,0.00,WUHU216DAVISVP2,2013-08-03 23:18:00,
2013-08-03 19:23:00,76.0,56.1,29.83,NNE,23,4.0,11.0,50,0.00,,,0.00,WUHU216DAVISVP2,2013-08-03 23:23:00,
2013-08-03 19:28:00,75.7,55.8,29.83,NW,321,3.0,11.0,50,0.00,,,0.00,WUHU216DAVISVP2,2013-08-03 23:28:00,
2013-08-03 19:33:00,75.1,55.3,29.83,WNW,283,4.0,9.0,50,0.00,,,0.00,WUHU216DAVISVP2,2013-08-03 23:33:00,
2013-08-03 19:38:00,74.5,55.3,29.83,NNW,338,2.8,8.0,51,0.00,,,0.00,WUHU216DAVISVP2,2013-08-03 23:38:00,
2013-08-03 19:43:00,73.9,55.8,29.83,NW,312,3.0,8.0,53,0.00,,,0.00,WUHU216DAVISVP2,2013-08-03 23:43:00,
2013-08-03 19:48:00,73.4,55.4,29.83,North,354,1.5,6.0,53,0.00,,,0.00,WUHU216DAVISVP2,2013-08-03 23:48:00,
2013-08-03 19:53:00,73.1,55.6,29.84,NW,304,1.8,6.0,54,0.00,,,0.00,WUHU216DAVISVP2,2013-08-03 23:53:00,
2013-08-03 19:58:00,72.6,55.7,29.84,NW,312,1.3,4.0,55,0.00,,,0.00,WUHU216DAVISVP2,2013-08-03 23:58:00,
2013-08-03 20:03:00,72.1,56.0,29.84,NNW,327,1.1,4.0,57,0.00,,,0.00,WUHU216DAVISVP2,2013-08-04 00:03:00,
2013-08-03 20:08:00,71.6,55.6,29.84,WNW,302,1.3,4.0,57,0.00,,,0.00,WUHU216DAVISVP2,2013-08-04 00:08:00,
2013-08-03 20:13:00,71.4,55.9,29.84,WNW,300,1.1,3.0,58,0.00,,,0.00,WUHU216DAVISVP2,2013-08-04 00:13:00,
2013-08-03 20:18:00,71.1,55.6,29.84,NW,323,3.1,6.0,58,0.00,,,0.00,WUHU216DAVISVP2,2013-08-04 00:18:00,
2013-08-03 20:23:00,70.6,55.6,29.85,West,262,1.0,6.0,59,0.00,,,0.00,WUHU216DAVISVP2,2013-08-04 00:23:00,
2013-08-03 20:28:00,70.2,56.1,29.85,NW,320,1.0,6.0,61,0.00,,,0.00,WUHU216DAVISVP2,2013-08-04 00:28:00,
2013-08-03 20:33:00,69.8,55.3,29.84,NW,321,1.0,6.0,60,0.00,,,0.00,WUHU216DAVISVP2,2013-08-04 00:33:00,
2013-08-03 20:38:00,69.3,55.5,29.85,NW,320,0.0,1.0,61,0.00,,,0.00,WUHU216DAVISVP2,2013-08-04 00:38:00,
2013-08-03 20:43:00,68.5,55.4,29.85,NW,320,0.0,1.0,63,0.00,,,0.00,WUHU216DAVISVP2,2013-08-04 00:43:00,
2013-08-03 20:48:00,67.9,56.3,29.85,NW,318,1.0,1.0,66,0.00,,,0.00,WUHU216DAVISVP2,2013-08-04 00:48:00,
2013-08-03 20:53:00,67.1,57.5,29.85,NW,318,0.0,1.0,71,0.00,,,0.00,WUHU216DAVISVP2,2013-08-04 00:53:00,
2013-08-03 20:58:00,66.3,57.5,29.85,NW,318,0.0,1.0,73,0.00,,,0.00,WUHU216DAVISVP2,2013-08-04 00:58:00,
2013-08-03 21:03:00,65.6,56.8,29.85,NW,318,0.0,1.0,73,0.00,,,0.00,WUHU216DAVISVP2,2013-08-04 01:03:00,
2013-08-03 21:08:00,65.0,57.4,29.85,NW,318,0.0,0.0,76,0.00,,,0.00,WUHU216DAVISVP2,2013-08-04 01:08:00,
2013-08-03 21:13:00,64.4,57.8,29.86,NW,318,0.0,0.0,79,0.00,,,0.00,WUHU216DAVISVP2,2013-08-04 01:13:00,
2013-08-03 21:18:00,63.9,58.0,29.86,NW,318,0.0,0.0,81,0.00,,,0.00,WUHU216DAVISVP2,2013-08-04 01:18:00,
2013-08-03 21:23:00,63.2,58.0,29.87,NW,318,0.0,0.0,83,0.00,,,0.00,WUHU216DAVISVP2,2013-08-04 01:23:00,
2013-08-03 21:28:00,62.7,58.1,29.87,NW,318,0.0,0.0,85,0.00,,,0.00,WUHU216DAVISVP2,2013-08-04 01:28:00,
2013-08-03 21:33:00,62.2,57.6,29.87,NW,318,0.0,0.0,85,0.00,,,0.00,WUHU216DAVISVP2,2013-08-04 01:33:00,
2013-08-03 21:38:00,61.8,57.3,29.87,NW,318,0.0,0.0,85,0.00,,,0.00,WUHU216DAVISVP2,2013-08-04 01:38:00,
2013-08-03 21:43:00,61.5,57.3,29.87,NW,318,1.0,1.0,86,0.00,,,0.00,WUHU216DAVISVP2,2013-08-04 01:43:00,
2013-08-03 21:48:00,61.2,57.0,29.87,NW,318,0.0,1.0,86,0.00,,,0.00,WUHU216DAVISVP2,2013-08-04 01:48:00,
2013-08-03 21:53:00,61.0,57.1,29.87,NW,318,0.0,1.0,87,0.00,,,0.00,WUHU216DAVISVP2,2013-08-04 01:53:00,
2013-08-03 21:58:00,61.5,57.0,29.87,WNW,297,1.5,3.0,85,0.00,,,0.00,WUHU216DAVISVP2,2013-08-04 01:58:00,
2013-08-03 22:03:00,63.2,56.2,29.88,WNW,294,2.0,6.0,78,0.00,,,0.00,WUHU216DAVISVP2,2013-08-04 02:03:00,
2013-08-03 22:08:00,64.5,56.4,29.88,NW,323,1.6,6.0,75,0.00,,,0.00,WUHU216DAVISVP2,2013-08-04 02:08:00,
2013-08-03 22:13:00,65.0,56.1,29.88,NNW,335,1.5,6.0,73,0.00,,,0.00,WUHU216DAVISVP2,2013-08-04 02:13:00,
2013-08-03 22:18:00,65.4,56.3,29.88,NNW,340,1.2,6.0,72,0.00,,,0.00,WUHU216DAVISVP2,2013-08-04 02:18:00,
2013-08-03 22:23:00,65.4,55.9,29.88,NNW,333,1.5,4.0,71,0.00,,,0.00,WUHU216DAVISVP2,2013-08-04 02:23:00,
2013-08-03 22:28:00,65.7,55.8,29.88,North,356,1.6,4.0,70,0.00,,,0.00,WUHU216DAVISVP2,2013-08-04 02:28:00,
2013-08-03 22:33:00,65.9,56.0,29.88,NNW,338,4.0,4.0,70,0.00,,,0.00,WUHU216DAVISVP2,2013-08-04 02:33:00,
2013-08-03 22:38:00,66.0,55.7,29.88,WNW,290,2.0,4.0,69,0.00,,,0.00,WUHU216DAVISVP2,2013-08-04 02:38:00,
2013-08-03 22:43:00,66.0,55.7,29.88,NW,309,2.0,4.0,69,0.00,,,0.00,WUHU216DAVISVP2,2013-08-04 02:43:00,
2013-08-03 22:48:00,65.8,55.9,29.88,WNW,295,1.3,5.0,70,0.00,,,0.00,WUHU216DAVISVP2,2013-08-04 02:48:00,
2013-08-03 22:53:00,65.7,55.4,29.87,WNW,287,1.5,5.0,69,0.00,,,0.00,WUHU216DAVISVP2,2013-08-04 02:53:00,
2013-08-03 22:58:00,65.8,55.9,29.87,WNW,300,3.0,5.0,70,0.00,,,0.00,WUHU216DAVISVP2,2013-08-04 02:58:00,
2013-08-03 23:03:00,65.5,55.6,29.87,West,278,1.9,5.0,70,0.00,,,0.00,WUHU216DAVISVP2,2013-08-04 03:03:00,
2013-08-03 23:08:00,65.7,55.4,29.87,WNW,296,1.7,5.0,69,0.00,,,0.00,WUHU216DAVISVP2,2013-08-04 03:08:00,
2013-08-03 23:13:00,65.8,55.5,29.87,NW,310,1.1,5.0,69,0.00,,,0.00,WUHU216DAVISVP2,2013-08-04 03:13:00,
2013-08-03 23:18:00,65.8,55.3,29.87,West,277,2.0,7.0,69,0.00,,,0.00,WUHU216DAVISVP2,2013-08-04 03:18:00,
2013-08-03 23:23:00,65.6,55.2,29.86,WNW,293,2.0,7.0,69,0.00,,,0.00,WUHU216DAVISVP2,2013-08-04 03:23:00,
2013-08-03 23:28:00,65.4,55.4,29.86,WNW,297,4.0,7.0,70,0.00,,,0.00,WUHU216DAVISVP2,2013-08-04 03:28:00,
2013-08-03 23:33:00,65.6,55.3,29.87,NW,323,2.0,5.0,69,0.00,,,0.00,WUHU216DAVISVP2,2013-08-04 03:33:00,
2013-08-03 23:38:00,65.6,55.7,29.86,West,269,2.0,5.0,70,0.00,,,0.00,WUHU216DAVISVP2,2013-08-04 03:38:00,
2013-08-03 23:43:00,65.7,55.8,29.86,West,269,1.0,6.0,70,0.00,,,0.00,WUHU216DAVISVP2,2013-08-04 03:43:00,
2013-08-03 23:48:00,65.4,55.5,29.86,WNW,294,1.4,6.0,70,0.00,,,0.00,WUHU216DAVISVP2,2013-08-04 03:48:00,
2013-08-03 23:53:00,65.4,55.5,29.86,NNW,337,1.1,6.0,70,0.00,,,0.00,WUHU216DAVISVP2,2013-08-04 03:53:00,
2013-08-03 23:58:00,65.4,55.5,29.86,ESE,102,1.5,6.0,70,0.00,,,0.00,WUHU216DAVISVP2,2013-08-04 03:58:00,